Newport Airport, OR

2:13 AM PST on December 13, 2017 (GMT -0800)
Newport Municipal

Weather History for KONP - November, 2010

Change the Weather History Date:

Tuesday, November 30, 2010

  Actual Average Record
Temperature  
Mean Temperature 48 °F -  
Max Temperature 51 °F 51 °F 64 °F (2008)
Min Temperature 44 °F 41 °F 32 °F (2014)
Degree Days  
Heating Degree Days 18    
Moisture  
Dew Point 46 °F    
Average Humidity 91    
Maximum Humidity 100    
Minimum Humidity 82    
Precipitation  
Precipitation 0.49 in - - ()
Sea Level Pressure  
Sea Level Pressure 30.09 in    
Wind  
Wind Speed 20 mph (SSW)    
Max Wind Speed 34 mph    
Max Gust Speed 50 mph    
Visibility 6 miles    
Events Rain    
Averages and records for this station are not official NWS values.
T = Trace of Precipitation, MM = Missing Value Source: NWS Daily Summary

Daily Weather History Graph

Daily Weather History Graph

Search for Another Location

Airport or City:

Trip Planner

Search our weather history database for the weather conditions in past years. The results will help you decide how hot, cold, wet, or windy it might be!

Date:

Astronomy

Nov. 30, 2010 Rise Set
Actual Time 7:31 AM PST 4:37 PM PST
Civil Twilight 6:59 AM PST 5:10 PM PST
Nautical Twilight 6:22 AM PST 5:46 PM PST
Astronomical Twilight 5:47 AM PST 6:22 PM PST
Moon 1:43 AM PST (11/30) 1:20 PM PST (11/30)
Length of Visible Light 10h 11m
Length of Day
9h 06m
Waning Crescent, 28% of the Moon is Illuminated
Nov 30
Waning Crescent
Dec 5
New
Dec 13
First Quarter
Dec 21
Full
Dec 27
Last Quarter

Hourly Weather History & Observations

Time (PST) Temp. Windchill Dew Point Humidity Pressure Visibility Wind Dir Wind Speed Gust Speed Precip Events Conditions
12:51 AM 44.6 °F 38.4 °F 42.8 °F 93% 30.21 in 7.0 mi South 12.7 mph 19.6 mph 0.05 in Rain Light Rain
1:11 AM 44.6 °F 38.8 °F 42.8 °F 93% 30.21 in 7.0 mi South 11.5 mph 20.7 mph 0.01 in Rain Light Rain
1:31 AM 44.6 °F 39.7 °F 42.8 °F 93% 30.21 in 10.0 mi South 9.2 mph 20.7 mph 0.03 in Rain Rain
1:51 AM 44.6 °F 40.2 °F 42.8 °F 93% 30.20 in 7.0 mi SSE 8.1 mph 17.3 mph 0.04 in   Drizzle
2:11 AM 44.6 °F 39.7 °F 42.8 °F 93% 30.19 in 7.0 mi South 9.2 mph 18.4 mph 0.01 in Rain Light Rain
2:51 AM 44.6 °F 38.8 °F 42.8 °F 93% 30.18 in 10.0 mi SSE 11.5 mph 21.9 mph 0.03 in   Overcast
3:11 AM 46.4 °F 40.1 °F 42.8 °F 87% 30.17 in 10.0 mi SSE 15.0 mph 20.7 mph N/A Rain Light Rain
3:31 AM 46.4 °F 39.5 °F 42.8 °F 87% 30.16 in 10.0 mi South 17.3 mph 24.2 mph N/A Rain Light Rain
4:11 AM 46.4 °F 39.5 °F 44.6 °F 93% 30.15 in 10.0 mi South 17.3 mph 26.5 mph N/A Rain Light Rain
4:31 AM 46.4 °F 40.1 °F 44.6 °F 93% 30.14 in 10.0 mi South 15.0 mph 23.0 mph N/A   Drizzle
4:53 AM 46.4 °F 39.5 °F 44.6 °F 93% 30.14 in 10.0 mi South 17.3 mph 23.0 mph N/A Rain Rain
5:11 AM 48.2 °F - 44.6 °F 87% 30.12 in 10.0 mi South 15.0 mph 25.3 mph 0.01 in   Drizzle
5:31 AM 48.2 °F - 44.6 °F 87% 30.12 in 10.0 mi South 13.8 mph 25.3 mph 0.01 in Rain Rain
5:51 AM 48.2 °F - 44.6 °F 87% 30.11 in 10.0 mi South 17.3 mph 27.6 mph 0.01 in   Light Drizzle
6:11 AM 48.2 °F - 44.6 °F 87% 30.09 in 10.0 mi South 20.7 mph 28.8 mph N/A   Drizzle
6:31 AM 48.2 °F - 46.4 °F 93% 30.08 in 10.0 mi South 13.8 mph 31.1 mph N/A   Light Drizzle
6:51 AM 48.2 °F - 46.4 °F 93% 30.09 in 10.0 mi South 16.1 mph 35.7 mph N/A Rain Light Rain
7:11 AM 48.2 °F - 46.4 °F 93% 30.08 in 10.0 mi South 17.3 mph 27.6 mph N/A   Drizzle
7:31 AM 50.0 °F - 46.4 °F 87% 30.07 in 10.0 mi South 24.2 mph 43.7 mph N/A Rain Light Rain
7:51 AM 50.0 °F - 46.4 °F 87% 30.06 in 7.0 mi South 27.6 mph 36.8 mph 0.01 in Rain Light Rain
8:11 AM 50.0 °F - 46.4 °F 87% 30.05 in 7.0 mi South 29.9 mph 40.3 mph N/A Rain Rain
8:51 AM 51.8 °F - 46.4 °F 82% 30.05 in 7.0 mi SSW 32.2 mph 44.9 mph 0.01 in Rain Light Rain
9:11 AM 50.0 °F - 48.2 °F 94% 30.05 in 4.0 mi SSW 31.1 mph 44.9 mph 0.01 in Rain Light Rain
9:31 AM 51.8 °F - 48.2 °F 88% 30.05 in 5.0 mi SSW 29.9 mph 40.3 mph 0.02 in Rain Light Rain
9:51 AM 51.8 °F - 48.2 °F 88% 30.06 in 5.0 mi SSW 28.8 mph 36.8 mph 0.03 in Rain Light Rain
10:11 AM 51.8 °F - 48.2 °F 88% 30.07 in 4.0 mi SSW 27.6 mph 39.1 mph 0.01 in Rain Light Rain
10:31 AM 51.8 °F - 48.2 °F 88% 30.06 in 4.0 mi SSW 28.8 mph 41.4 mph 0.03 in Rain Rain
10:52 AM 51.8 °F - 48.2 °F 88% 30.05 in 4.0 mi SSW 32.2 mph 39.1 mph 0.06 in Rain Rain
11:11 AM 51.8 °F - 48.2 °F 88% 30.05 in 4.0 mi SSW 28.8 mph 38.0 mph 0.02 in Rain Rain
11:31 AM 51.8 °F - 48.2 °F 88% 30.04 in 3.0 mi SSW 31.1 mph 47.2 mph 0.05 in Rain Rain
11:51 AM 51.8 °F - 48.2 °F 88% 30.04 in 2.5 mi SSW 29.9 mph 42.6 mph 0.08 in Rain Rain
12:11 PM 51.8 °F - 48.2 °F 88% 30.04 in 2.5 mi SSW 23.0 mph 36.8 mph 0.03 in Rain Rain
12:31 PM 51.8 °F - 48.2 °F 88% 30.04 in 3.0 mi SSW 28.8 mph 44.9 mph 0.04 in Rain Light Rain
12:51 PM 51.8 °F - 48.2 °F 88% 30.04 in 3.0 mi SSW 24.2 mph 38.0 mph 0.04 in Rain Light Rain
1:11 PM 51.8 °F - 48.2 °F 88% 30.04 in 2.5 mi SSW 29.9 mph 42.6 mph 0.01 in Rain Light Rain
1:31 PM 50.0 °F - 48.2 °F 94% 30.02 in 2.0 mi SSW 34.5 mph 47.2 mph 0.01 in Rain Light Rain
1:51 PM 51.8 °F - 48.2 °F 88% 30.03 in 3.0 mi SSW 34.5 mph 43.7 mph 0.01 in Rain Light Rain
2:11 PM 50.0 °F - 48.2 °F 94% 30.05 in 1.2 mi SW 34.5 mph 49.5 mph 0.01 in Rain Light Rain
2:31 PM 48.2 °F - 48.2 °F 100% 30.06 in 1.2 mi SW 33.4 mph 42.6 mph 0.01 in Rain Light Rain
2:51 PM 48.2 °F - 46.4 °F 93% 30.06 in 2.0 mi SW 34.5 mph 44.9 mph 0.02 in Rain Light Rain
3:12 PM 48.2 °F - 46.4 °F 93% 30.08 in 2.0 mi SW 28.8 mph 38.0 mph 0.03 in Rain Rain
3:31 PM 48.2 °F - 46.4 °F 93% 30.06 in 2.0 mi SW 32.2 mph 41.4 mph 0.04 in Rain Light Rain
3:51 PM 48.2 °F - 46.4 °F 93% 30.07 in 3.0 mi SSW 31.1 mph 41.4 mph 0.06 in Rain Light Rain
4:11 PM 48.2 °F - 46.4 °F 93% 30.07 in 3.0 mi SSW 32.2 mph 44.9 mph 0.01 in Rain Light Rain
4:31 PM 48.2 °F - 46.4 °F 93% 30.08 in 3.0 mi SSW 27.6 mph 43.7 mph 0.01 in Rain Light Rain
4:51 PM 48.2 °F - 46.4 °F 93% 30.08 in 4.0 mi SSW 29.9 mph 36.8 mph 0.02 in Rain Light Rain
5:11 PM 48.2 °F - 46.4 °F 93% 30.08 in 3.0 mi SSW 21.9 mph 33.4 mph 0.01 in Rain Light Rain
5:31 PM 48.2 °F - 46.4 °F 93% 30.08 in 3.0 mi SSW 25.3 mph 32.2 mph 0.01 in Rain Light Rain
5:51 PM 48.2 °F - 46.4 °F 93% 30.08 in 5.0 mi SSW 25.3 mph 38.0 mph 0.01 in   Overcast
6:11 PM 48.2 °F - 46.4 °F 93% 30.08 in 5.0 mi SSW 24.2 mph 32.2 mph N/A   Overcast
6:31 PM 48.2 °F - 46.4 °F 93% 30.08 in 5.0 mi SSW 24.2 mph 32.2 mph N/A   Light Drizzle
6:51 PM 48.2 °F - 46.4 °F 93% 30.08 in 3.0 mi SSW 19.6 mph 34.5 mph N/A Rain Light Rain
7:11 PM 48.2 °F - 46.4 °F 93% 30.08 in 4.0 mi SSW 26.5 mph 40.3 mph N/A Rain Light Rain
7:31 PM 48.2 °F - 46.4 °F 93% 30.08 in 4.0 mi SSW 24.2 mph 36.8 mph N/A Rain Light Rain
7:51 PM 48.2 °F - 46.4 °F 93% 30.08 in 4.0 mi SSW 26.5 mph 33.4 mph N/A Rain Light Rain
8:11 PM 48.2 °F - 46.4 °F 93% 30.08 in 4.0 mi SSW 21.9 mph 32.2 mph 0.01 in Rain Light Rain
8:31 PM 48.2 °F - 46.4 °F 93% 30.08 in 4.0 mi SSW 21.9 mph 31.1 mph 0.01 in Rain Light Rain
8:51 PM 48.2 °F - 46.4 °F 93% 30.08 in 4.0 mi SSW 21.9 mph 31.1 mph 0.01 in Rain Light Rain
9:11 PM 48.2 °F - 46.4 °F 93% 30.08 in 5.0 mi SSW 18.4 mph 35.7 mph N/A   Overcast
9:31 PM 48.2 °F - 48.2 °F 100% 30.08 in 5.0 mi SSW 21.9 mph 31.1 mph N/A   Overcast
9:51 PM 50.0 °F - 48.2 °F 94% 30.08 in 5.0 mi SSW 20.7 mph 29.9 mph N/A   Overcast
10:11 PM 50.0 °F - 48.2 °F 94% 30.08 in 5.0 mi SSW 24.2 mph 34.5 mph N/A   Overcast
10:31 PM 50.0 °F - 48.2 °F 94% 30.09 in 5.0 mi SSW 17.3 mph 27.6 mph N/A   Overcast
10:51 PM 50.0 °F - 48.2 °F 94% 30.09 in 4.0 mi SSW 17.3 mph 24.2 mph N/A   Overcast
11:11 PM 50.0 °F - 48.2 °F 94% 30.09 in 5.0 mi SSW 15.0 mph - N/A   Overcast
11:31 PM 50.0 °F - 48.2 °F 94% 30.09 in 5.0 mi SW 23.0 mph 26.5 mph N/A   Overcast
11:51 PM 50.0 °F - 48.2 °F 94% 30.09 in 5.0 mi SW 21.9 mph 29.9 mph N/A   Overcast